Torna al catalogo

STARLINK-36693

AttivoComunicazioniSSO
NORAD 67742·PAYLOAD·🇺🇸 United States

Lanciato Feb 11, 2026 da Vandenberg Space Force Base

Loading…

Prossimi Passaggi (prossime 24 ore)

TLE

AggiornatoSource: CelesTrak SupGP

Epoca: Sep 14, 2026, 21:15 UTC

1 67742C 26026X   26257.88590278 -.00115890  00000+0 -36052-2 0  2571
2 67742  97.2851 309.8462 0001320  95.0917 254.0719 15.33429951    10

Traccia STARLINK-36693 in tempo reale con AllMySat

Download on the App Store